• In Hungary
  • List of Countries
  • For 7 days
  • Water Temperature
  • Satellite Maps
  • Weather Map
  • News
  • Weather Widgets
  • user-avatar
    Login

    Hourly Weather Luanda

    Today, 24 November, Friday

    Time Temperature Precipitation Wind Pressure Humidity
    00:00 +26°C° 2.7 mm 1 mps 754 mmHg 89%
    01:00 +26°C° 0 mm 2 mps 754 mmHg 90%
    02:00 +26°C° 1.1 mm 2 mps 753 mmHg 90%
    03:00 +26°C° 1.1 mm 2 mps 753 mmHg 91%
    04:00 +26°C° 1.1 mm 2 mps 753 mmHg 91%
    05:00 +26°C° 0.3 mm 2 mps 753 mmHg 90%
    06:00 +26°C° 0.3 mm 1 mps 754 mmHg 89%
    07:00 +27°C° 0 mm 2 mps 754 mmHg 87%
    08:00 +28°C° 0.1 mm 2 mps 754 mmHg 82%
    09:00 +29°C° 0.1 mm 2 mps 754 mmHg 78%
    10:00 +30°C° 0.1 mm 1 mps 754 mmHg 73%
    11:00 +30°C° 0 mm 2 mps 753 mmHg 69%
    12:00 +31°C° 0 mm 2 mps 753 mmHg 66%
    13:00 +33°C° 0 mm 3 mps 752 mmHg 62%
    14:00 +33°C° 0 mm 3 mps 752 mmHg 63%
    15:00 +32°C° 0 mm 4 mps 751 mmHg 64%
    16:00 +32°C° 0 mm 4 mps 751 mmHg 65%
    17:00 +30°C° 0 mm 4 mps 751 mmHg 71%
    18:00 +29°C° 0 mm 4 mps 752 mmHg 76%
    19:00 +27°C° 0 mm 3 mps 752 mmHg 81%
    20:00 +27°C° 0 mm 3 mps 753 mmHg 82%
    21:00 +27°C° 0 mm 2 mps 754 mmHg 83%
    22:00 +27°C° 0 mm 2 mps 754 mmHg 84%
    23:00 +27°C° 0 mm 2 mps 754 mmHg 84%

    Tomorrow, 25 November, Saturday

    Time Temperature Precipitation Wind Pressure Humidity
    00:00 +27°C° 0 mm 1 mps 754 mmHg 85%
    01:00 +27°C° 0 mm 1 mps 754 mmHg 85%
    02:00 +27°C° 0 mm 1 mps 754 mmHg 86%
    03:00 +26°C° 0 mm 1 mps 753 mmHg 86%
    04:00 +26°C° 0 mm 1 mps 753 mmHg 87%
    05:00 +27°C° 0.1 mm 1 mps 753 mmHg 85%
    06:00 +27°C° 0.1 mm 1 mps 754 mmHg 83%
    07:00 +27°C° 0.1 mm 1 mps 754 mmHg 81%
    08:00 +28°C° 0 mm 1 mps 754 mmHg 75%
    09:00 +29°C° 0 mm 1 mps 754 mmHg 70%
    10:00 +30°C° 0 mm 1 mps 755 mmHg 64%
    11:00 +30°C° 0.1 mm 1 mps 754 mmHg 64%
    12:00 +31°C° 0.1 mm 2 mps 754 mmHg 64%
    13:00 +31°C° 0.1 mm 2 mps 753 mmHg 63%
    14:00 +31°C° 0 mm 2 mps 753 mmHg 64%
    15:00 +30°C° 0 mm 3 mps 752 mmHg 64%
    16:00 +30°C° 0 mm 3 mps 752 mmHg 64%
    17:00 +30°C° 0 mm 3 mps 752 mmHg 68%
    18:00 +29°C° 0 mm 2 mps 752 mmHg 72%
    19:00 +28°C° 0 mm 2 mps 753 mmHg 76%
    20:00 +27°C° 0 mm 2 mps 754 mmHg 78%
    21:00 +27°C° 0 mm 2 mps 754 mmHg 79%
    22:00 +27°C° 0 mm 1 mps 755 mmHg 81%
    23:00 +27°C° 0.2 mm 1 mps 754 mmHg 83%

    Day after tomorrow, 26 November, Sunday

    Time Temperature Precipitation Wind Pressure Humidity
    00:00 +27°C° 0.2 mm 1 mps 754 mmHg 84%
    01:00 +26°C° 0.2 mm 1 mps 754 mmHg 86%
    02:00 +26°C° 0.2 mm 1 mps 754 mmHg 87%
    03:00 +26°C° 0.2 mm 1 mps 753 mmHg 88%
    04:00 +26°C° 0.2 mm 1 mps 753 mmHg 89%
    05:00 +26°C° 0.5 mm 1 mps 754 mmHg 88%
    06:00 +26°C° 0.5 mm 1 mps 754 mmHg 87%
    07:00 +26°C° 0.5 mm 2 mps 755 mmHg 86%
    08:00 +27°C° 1.1 mm 2 mps 755 mmHg 82%
    09:00 +28°C° 1.1 mm 1 mps 755 mmHg 77%
    10:00 +29°C° 1.1 mm 1 mps 756 mmHg 73%
    11:00 +29°C° 1.2 mm 2 mps 755 mmHg 74%
    12:00 +29°C° 1.2 mm 2 mps 754 mmHg 75%
    13:00 +29°C° 1.2 mm 2 mps 754 mmHg 76%
    14:00 +28°C° 1.1 mm 2 mps 754 mmHg 79%
    15:00 +27°C° 1.1 mm 2 mps 753 mmHg 81%
    16:00 +27°C° 1.1 mm 2 mps 753 mmHg 84%
    17:00 +27°C° 0.7 mm 2 mps 754 mmHg 86%
    18:00 +26°C° 0.7 mm 2 mps 754 mmHg 89%
    19:00 +26°C° 0.7 mm 2 mps 755 mmHg 91%
    20:00 +26°C° 0.3 mm 2 mps 755 mmHg 91%
    21:00 +26°C° 0.3 mm 2 mps 756 mmHg 92%
    22:00 +26°C° 0.3 mm 2 mps 756 mmHg 92%
    23:00 +26°C° 0.3 mm 2 mps 756 mmHg 92%

    27 November, Monday

    Time Temperature Precipitation Wind Pressure Humidity
    00:00 +26°C° 0.3 mm 2 mps 755 mmHg 92%
    01:00 +26°C° 0.3 mm 2 mps 755 mmHg 92%
    02:00 +25°C° 0.4 mm 2 mps 755 mmHg 91%
    03:00 +25°C° 0.4 mm 2 mps 754 mmHg 91%
    04:00 +25°C° 0.4 mm 2 mps 754 mmHg 91%
    05:00 +25°C° 0.2 mm 2 mps 755 mmHg 90%
    06:00 +25°C° 0.2 mm 2 mps 755 mmHg 90%
    07:00 +25°C° 0.2 mm 2 mps 756 mmHg 89%
    08:00 +26°C° 0 mm 2 mps 756 mmHg 84%
    09:00 +27°C° 0 mm 2 mps 756 mmHg 80%
    10:00 +28°C° 0 mm 1 mps 756 mmHg 75%
    11:00 +29°C° 0.1 mm 1 mps 755 mmHg 70%
    12:00 +30°C° 0.1 mm 1 mps 755 mmHg 65%
    13:00 +31°C° 0.1 mm 1 mps 754 mmHg 60%
    14:00 +30°C° 0 mm 2 mps 754 mmHg 63%
    15:00 +30°C° 0 mm 2 mps 753 mmHg 66%
    16:00 +29°C° 0 mm 2 mps 753 mmHg 68%
    17:00 +28°C° 0 mm 2 mps 753 mmHg 72%
    18:00 +28°C° 0 mm 2 mps 754 mmHg 75%
    19:00 +27°C° 0 mm 2 mps 754 mmHg 78%
    20:00 +27°C° 0 mm 2 mps 754 mmHg 79%
    21:00 +27°C° 0 mm 1 mps 755 mmHg 80%
    22:00 +26°C° 0 mm 1 mps 755 mmHg 82%
    23:00 +26°C° 0 mm 1 mps 755 mmHg 82%

    28 November, Tuesday

    Time Temperature Precipitation Wind Pressure Humidity
    00:00 +26°C° 0 mm 1 mps 754 mmHg 83%
    01:00 +26°C° 0 mm 1 mps 754 mmHg 84%
    02:00 +25°C° 0 mm 1 mps 754 mmHg 84%
    03:00 +25°C° 0 mm 1 mps 753 mmHg 85%
    04:00 +25°C° 0 mm 1 mps 753 mmHg 86%
    05:00 +25°C° 0 mm 1 mps 754 mmHg 84%
    06:00 +26°C° 0 mm 2 mps 754 mmHg 83%
    07:00 +26°C° 0 mm 2 mps 754 mmHg 81%
    08:00 +28°C° 0 mm 2 mps 755 mmHg 73%
    09:00 +30°C° 0 mm 2 mps 755 mmHg 66%
    10:00 +31°C° 0 mm 2 mps 755 mmHg 59%
    11:00 +32°C° 0 mm 2 mps 754 mmHg 56%
    12:00 +34°C° 0 mm 3 mps 753 mmHg 53%
    13:00 +34°C° 0 mm 3 mps 753 mmHg 50%
    14:00 +34°C° 0 mm 4 mps 752 mmHg 52%
    15:00 +33°C° 0 mm 4 mps 752 mmHg 55%
    16:00 +33°C° 0 mm 5 mps 751 mmHg 58%
    17:00 +30°C° 0 mm 5 mps 752 mmHg 63%
    18:00 +29°C° 0 mm 4 mps 752 mmHg 69%
    19:00 +28°C° 0 mm 4 mps 753 mmHg 75%
    20:00 +27°C° 0 mm 3 mps 753 mmHg 77%
    21:00 +27°C° 0 mm 3 mps 754 mmHg 79%
    22:00 +27°C° 0 mm 3 mps 754 mmHg 82%
    23:00 +27°C° 0 mm 3 mps 754 mmHg 83%

    29 November, Wednesday

    Time Temperature Precipitation Wind Pressure Humidity
    00:00 +27°C° 0 mm 2 mps 754 mmHg 85%
    01:00 +26°C° 0 mm 2 mps 753 mmHg 87%
    02:00 +26°C° 0 mm 2 mps 753 mmHg 87%
    03:00 +26°C° 0 mm 2 mps 753 mmHg 88%
    04:00 +26°C° 0 mm 2 mps 753 mmHg 88%
    05:00 +26°C° 0 mm 2 mps 753 mmHg 87%
    06:00 +27°C° 0 mm 2 mps 754 mmHg 85%
    07:00 +27°C° 0 mm 2 mps 754 mmHg 83%
    08:00 +28°C° 0 mm 2 mps 754 mmHg 79%
    09:00 +28°C° 0 mm 2 mps 755 mmHg 74%
    10:00 +29°C° 0 mm 2 mps 755 mmHg 70%
    11:00 +29°C° 0 mm 2 mps 754 mmHg 69%
    12:00 +30°C° 0 mm 3 mps 753 mmHg 68%
    13:00 +30°C° 0 mm 3 mps 752 mmHg 66%
    14:00 +30°C° 0 mm 4 mps 752 mmHg 67%
    15:00 +30°C° 0 mm 4 mps 751 mmHg 67%
    16:00 +30°C° 0 mm 4 mps 751 mmHg 68%
    17:00 +29°C° 0 mm 4 mps 752 mmHg 73%
    18:00 +28°C° 0 mm 4 mps 752 mmHg 78%
    19:00 +27°C° 0 mm 3 mps 753 mmHg 83%
    20:00 +27°C° 0 mm 3 mps 753 mmHg 85%
    21:00 +27°C° 0 mm 3 mps 754 mmHg 86%
    22:00 +26°C° 0 mm 3 mps 754 mmHg 87%
    23:00 +26°C° 0 mm 3 mps 754 mmHg 87%
    Show more